{"data":{"norad_id":58514,"intl_designator":"2023-191G","name":"STARLINK-30983","alt_names":[],"object_type":"PAYLOAD","status":"ACTIVE","operator":null,"country":"US","launch_date":"2023-12-07","launch_site_code":"AFETR","launch_vehicle":null,"mission":null,"orbit_class":"UNKNOWN","rcs_meters":null,"size_class":null,"mass_kg":null,"dimensions":null,"purposes":["comms"],"wikipedia_slug":null,"has_3d_model":false,"image_url":null,"decayed_at":null,"tle_current":{"epoch":"2026-05-25T01:52:46.479072Z","epoch_age_seconds":61651,"freshness":"FRESH","line1":"1 58514U 23191G   26145.07831573  .00001094  00000+0  49250-4 0  9998","line2":"2 58514  43.0058  32.0612 0001289 271.7875  88.2829 15.27591373136804","mean_motion":15.27591373,"eccentricity":0.0001289,"inclination_deg":43.0058,"raan_deg":32.0612,"arg_perigee_deg":271.7875,"mean_anomaly_deg":88.2829,"bstar":4.925e-5,"rev_number":13680,"period_min":94.266046892633,"perigee_km":482.13063889938,"apogee_km":483.89944389566,"semimajor_km":6861.1520413975,"source":"CELESTRAK","updated_at":"2026-05-25T13:38:18.656447Z"}}}